Regional Weather Roundup
Issued by NWS Mt. Holly, NJ

Home | Current Version | Previous Version | Text Only | Print | Product List | Glossary On
Versions: 1 2 3 4 5 6 7 8 9 10 11 12 13 14 15 16 17 18 19 20 21 22 23 24 25 26 27 28 29 30 31 32 33 34 35 36 37 38 39 40 41 42 43 44 45 46 47 48 49 50
000
ASUS41 KPHI 170312
RWRPHI

REGIONAL WEATHER ROUNDUP
NATIONAL WEATHER SERVICE MOUNT HOLLY NJ
1000 PM EST TUE JAN 16 2018

NOTE:  "FAIR" INDICATES FEW OR NO CLOUDS BELOW 12,000 FEET WITH NO
SIGNIFICANT WEATHER AND/OR OBSTRUCTIONS TO VISIBILITY.

 * = STATION DOES NOT REPORT PRECIPITATION (E.G. RAIN, SNOW, ETC.)
        OR FOG.

NJZ015>026-170400-
SOUTHERN NEW JERSEY

CITY           SKY/WX    TMP DP  RH WIND       PRES   REMARKS
POMONA         MOCLDY    36  33  89 CALM      30.33F
WILDWOOD*      CLOUDY    39  37  92 NE3       30.33S
MILLVILLE      CLOUDY    35  33  92 E6        30.33F WCI  30
WRIGHTSTOWN    MOCLDY    34  31  88 NE3       30.32F
MOUNT HOLLY    CLOUDY    34  31  88 CALM      30.34F
TRENTON        MOCLDY    35  31  85 N5        30.34F WCI  31

$$
NJZ001>014-170400-
NORTHERN NEW JERSEY

CITY           SKY/WX    TMP DP  RH WIND       PRES   REMARKS
SUSSEX         LGT SNOW  29  27  92 NE3       30.36S FOG
ANDOVER*         N/A     28  27  96 N3        30.34F
MORRISTOWN     CLOUDY    32  27  80 CALM      30.38F
NEWARK         CLOUDY    33  28  81 N7        30.37F WCI  27
TETERBORO      FAIR      33  26  75 N6        30.37F WCI  28
CALDWELL       MOCLDY    32  26  78 N3        30.38S
SOMERVILLE     CLOUDY    33  27  78 N3        30.35F
ALLAIRE*       MOCLDY    36  34  92 NE3       30.35F
TOMS RIVER*    CLOUDY    33  31  92 CALM      30.35F

$$
PAZ043-044-047-054-055-060>062-066>071-170400-
EASTERN PENNSYLVANIA

CITY           SKY/WX    TMP DP  RH WIND       PRES   REMARKS
PHILADELPHIA   CLOUDY    38  31  76 E3        30.35F
NORTH PHILA    CLOUDY    39  31  72 N5        30.36S
BLUE BELL*     CLOUDY    32  30  93 CALM      30.36S
DOYLESTOWN     CLOUDY    33  27  78 N3        30.34S
QUAKERTOWN*    MOCLDY    32  28  86 CALM      30.34F
PERKASIE*      CLOUDY    32  30  93 NE3       30.34F
LANCASTER      LGT SNOW  32  32 100 NW3       30.35S FOG
COATESVILLE    CLOUDY    32  30  93 CALM      30.34S
READING        CLOUDY    41  31  67 N5        30.35S HAZE
ALLENTOWN      LGT SNOW  32  28  85 CALM      30.35F FOG
MOUNT POCONO   LGT SNOW  27  27 100 CALM      30.26F FOG
HAZLETON       LGT SNOW  28  27  93 CALM      30.32F
LEHIGHTON      LGT SNOW  32  32 100 CALM      30.36S
WILKES BARRE   LGT SNOW  29  28  96 CALM      30.33F VSB 1

$$
DEZALL-MDZ008-012-015-019-020-170400-
DELAWARE AND EASTERN MARYLAND

CITY           SKY/WX    TMP DP  RH WIND       PRES   REMARKS
WILMINGTON     CLOUDY    36  32  85 NW5       30.35F WCI  32
DOVER          MOCLDY    36  36 100 NW5       30.33S WCI  32
GEORGETOWN     NOT AVBL
EASTON         MOCLDY    36  30  80 CALM      30.37F
ABERDEEN       CLOUDY   N/A N/A N/A CALM      30.36F
PATUXENT       MOCLDY    31  31 100 CALM      30.34F
OCEAN CITY     CLOUDY    42  40  92 CALM      30.31F
WALLOPS ISLAND CLOUDY    35  32  88 W8        30.33F WCI  29
CAMBRIDGE        N/A     32  30  93 NW3       30.34F
SALISBURY      CLOUDY    40  37  89 NW6       30.32S

$$
PAZ001-021-NYZ056-072-MDZ011-DCZ001-170400-
OTHER NEARBY LOCATIONS

CITY           SKY/WX    TMP DP  RH WIND       PRES   REMARKS
HARRISBURG     LGT SNOW  31  30  96 CALM      30.36S VSB 1
STATE COLLEGE  LGT SNOW  25  23  93 CALM      30.33S
WILLIAMSPORT   LGT SNOW  27  27 100 CALM      30.36S FOG
BINGHAMTON     LGT SNOW  24  23  96 CALM      30.28F VSB 1
NEW YORK CITY  FAIR      34  29  82 NE3       30.39F
BALTIMORE      CLOUDY    32  30  92 CALM      30.34F
WASHINGTON DC  CLOUDY    37  26  64 NE5       30.35F WCI  33

$$



USA.gov is the U.S. government's official web portal to all federal, state and local government web resources and services.